[[{"header":{"parameterUnit":"m.s-1","parameterCategory":1,"la1":30.2992,"la2":30.254,"lo1":-89.0895,"lo2":-89.0443,"dy":0.0025,"dx":0.0025,"nx":19,"ny":19,"refTime":"2026-03-12T03:00:00:Z","depth":0,"parameterNumber":2,"parameterNumberName":"U-component_of_WINDS"},"data":[0,0,0,-3.6373,-3.6377,-3.6533,-3.6533,-3.6747,-3.6749,0,0,0,0,0,0,0,0,0,0,0,-3.6334,-3.6335,-3.6373,-3.6377,-3.6533,-3.6533,-3.6746,-3.6749,0,0,0,0,0,0,0,0,0,0,0,-3.6333,-3.6335,-3.6337,-3.6378,-3.6533,-3.6533,-3.6746,-3.6624,0,0,0,0,0,0,0,0,0,0,-3.647,-3.6439,-3.6334,-3.6337,-3.6379,-3.6532,-3.6533,-3.6618,-3.6631,-3.6682,0,-3.6726,0,-3.674,-3.6764,-3.6764,0,0,0,-3.6373,-3.6428,-3.6464,-3.6337,-3.638,-3.6532,-3.6461,-3.6625,-3.6641,-3.67,-3.6729,-3.6736,-3.6744,-3.6765,-3.6766,-3.7064,-3.7066,0,0,-3.6364,-3.6366,-3.6453,-3.6474,-3.6449,-3.6456,-3.6466,-3.6634,-3.6667,-3.6729,-3.6741,-3.6748,-3.6767,-3.6768,-3.7063,-3.7065,0,0,0,-3.6343,-3.636,-3.6391,-3.6466,-3.6493,-3.6461,-3.6472,-3.6659,-3.6669,-3.6743,-3.675,-3.6768,-3.6771,-3.7061,-3.7063,-3.7143,0,0,0,-3.6337,-3.6347,-3.6388,-3.639,-3.649,-3.6578,-3.6494,-3.6658,-3.6677,-3.6749,-3.6768,-3.6773,-3.7059,-3.7062,-3.7137,-3.7181,0,0,0,-3.6322,-3.6345,-3.637,-3.639,-3.6457,-3.6575,-3.6594,-3.6662,-3.6681,-3.6765,-3.6773,-3.7058,-3.7062,-3.7131,-3.7172,-3.726,0,0,0,-3.6306,-3.6439,-3.6371,-3.6522,-3.6455,-3.6622,-3.6593,-3.6718,-3.6798,-3.6769,-3.7059,-3.7063,-3.713,-3.7166,-3.7254,-3.7334,-3.7367,0,0,-3.6474,-3.6459,-3.6548,-3.6492,-3.667,-3.6598,-3.6789,-3.6863,-3.6871,-3.7,-3.7007,-3.7139,-3.7171,-3.7259,-3.7552,-3.7578,0,0,0,-3.6602,-3.6666,-3.6713,-3.6789,-3.6847,-3.6902,-3.6946,-3.6973,-3.7083,-3.6936,-3.7194,-3.7213,-3.7264,-3.7303,-3.7325,-3.737,-3.7081,-3.708,-3.708,-3.6843,-3.6844,-3.6992,-3.7013,-3.7087,-3.7131,-3.7193,-3.7238,-3.7218,-3.7279,-3.7318,-3.7495,-3.754,-3.7557,-3.7603,-3.7359,-3.736,-3.736,-3.736,-3.7091,-3.7183,-3.7153,-3.7285,-3.7287,-3.7399,-3.7448,-3.743,-3.7537,-3.7466,-3.7512,-3.7435,-3.7586,-3.7627,-3.7366,-3.7365,-3.7365,-3.7364,-3.7363,-3.725,-3.7294,-3.7324,-3.7434,-3.752,-3.7537,-3.764,-3.7638,-3.7637,-3.7682,-3.7723,-3.7722,-3.7721,-3.7701,-3.7702,-3.7703,-3.7703,-3.7704,-3.7704,-3.7403,-3.7434,-3.752,-3.7594,-3.7642,-3.7707,-3.7753,-3.7802,-3.7856,-3.7847,-3.7847,-3.7823,-3.76,-3.7544,-3.7714,-3.7712,-3.7711,-3.771,-3.7709,-3.7655,-3.7598,-3.7731,-3.778,-3.7866,-3.7952,-3.7948,-3.8048,-3.8088,-3.8139,-3.8105,-3.794,-3.7925,-3.7908,-3.7862,-3.8103,-3.8103,-3.8103,-3.8103,-3.779,-3.7781,-3.7917,-3.7996,-3.8073,-3.8082,-3.8235,-3.8273,-3.8303,-3.8329,-3.8293,-3.8232,-3.8214,-3.821,-3.8185,-3.8143,-3.845,-3.8451,-3.8451,-3.7946,-3.7945,-3.8074,-3.81,-3.8168,-3.8227,-3.8371,-3.8464,-3.8487,-3.8465,-3.8349,-3.8334,-3.8235,-3.8203,-3.8179,-3.8141,-3.8063,0,0]},{"header":{"parameterUnit":"m.s-1","parameterCategory":1,"la1":30.2992,"la2":30.254,"lo1":-89.0895,"lo2":-89.0443,"dy":0.0025,"dx":0.0025,"nx":19,"ny":19,"refTime":"2026-03-12T03:00:00:Z","depth":0,"parameterNumber":3,"parameterNumberName":"V-component_of_WINDS"},"data":[0,0,0,0.0343,0.0345,0.0484,0.0485,0.0671,0.0672,0,0,0,0,0,0,0,0,0,0,0,0.0303,0.0304,0.0342,0.0346,0.0484,0.0485,0.067,0.0672,0,0,0,0,0,0,0,0,0,0,0,0.0302,0.0304,0.0305,0.0346,0.0484,0.0485,0.067,0.0563,0,0,0,0,0,0,0,0,0,0,0.0427,0.0391,0.0303,0.0305,0.0347,0.0484,0.0485,0.0558,0.057,0.061,0,0.0643,0,0.066,0.0685,0.0685,0,0,0,0.0346,0.0381,0.0417,0.0305,0.0348,0.0484,0.0422,0.0564,0.0578,0.0626,0.0645,0.0652,0.0663,0.0686,0.0687,0.0912,0.0913,0,0,0.0338,0.0329,0.0407,0.0425,0.0401,0.0417,0.0426,0.0573,0.0595,0.0646,0.0656,0.0666,0.0687,0.0689,0.0911,0.0913,0,0,0,0.0316,0.0324,0.0356,0.0418,0.0442,0.0421,0.0432,0.0588,0.0599,0.0658,0.0669,0.0688,0.0691,0.091,0.0912,0.0956,0,0,0,0.0312,0.0311,0.0353,0.0349,0.0439,0.0516,0.0444,0.0589,0.0606,0.0668,0.0688,0.0692,0.0909,0.0911,0.0953,0.098,0,0,0,0.0293,0.0309,0.0329,0.0348,0.0407,0.0514,0.0533,0.0593,0.0612,0.0686,0.0693,0.0908,0.0911,0.0949,0.0975,0.104,0,0,0,0.0272,0.0366,0.0329,0.0439,0.0406,0.0538,0.0533,0.0633,0.07,0.0689,0.0909,0.0912,0.0948,0.0971,0.1036,0.1094,0.1117,0,0,0.0386,0.038,0.0445,0.0416,0.0553,0.0518,0.0663,0.0735,0.0751,0.0859,0.0864,0.0954,0.0974,0.1039,0.124,0.1257,0,0,0,0.0478,0.0525,0.0563,0.0627,0.0682,0.0734,0.0783,0.081,0.0902,0.0803,0.0993,0.1006,0.1044,0.1073,0.1088,0.1123,0.0923,0.0923,0.0923,0.0629,0.0643,0.0753,0.0785,0.0846,0.0897,0.095,0.0995,0.0992,0.1037,0.107,0.119,0.1223,0.1234,0.1271,0.1099,0.1099,0.1099,0.1099,0.0801,0.0871,0.0864,0.0968,0.0984,0.1073,0.1127,0.1122,0.121,0.1165,0.12,0.1154,0.1253,0.1286,0.1103,0.1102,0.1102,0.1102,0.1101,0.0904,0.0941,0.097,0.1064,0.1136,0.1165,0.1249,0.126,0.1271,0.1305,0.1344,0.1343,0.1347,0.1322,0.1322,0.1323,0.1323,0.1323,0.1324,0.1002,0.1033,0.1102,0.1169,0.1212,0.127,0.1323,0.1367,0.1419,0.1421,0.1421,0.1417,0.1258,0.122,0.133,0.1329,0.1328,0.1328,0.1327,0.1177,0.1139,0.1245,0.1288,0.1369,0.1442,0.1453,0.1543,0.158,0.1623,0.161,0.149,0.1485,0.1473,0.1443,0.1604,0.1604,0.1604,0.1604,0.1267,0.1264,0.1377,0.1446,0.1514,0.1535,0.166,0.1702,0.1741,0.1766,0.1744,0.1703,0.169,0.1693,0.1677,0.1648,0.1858,0.1858,0.1858,0.1378,0.1382,0.1485,0.1519,0.1583,0.164,0.1758,0.1841,0.1877,0.1869,0.1788,0.1777,0.171,0.1687,0.1681,0.1655,0.1603,0,0]}]]